Temperature
21 22 23 23 23 23 23 23 23 22 22 21 21 20 20 20 19 19 19 18 18 18 18 18 17 17 17 17 17 17 16 16 16 16 16 16 16 16 16 16 16 16 16
21 22 22 23 23 23 24 23 23 23 22 22 21 21 20 20 19 19 19 18 18 18 18 18 17 17 17 17 17 17 16 16 16 16 16 15 15 15 16 16 15 15 16
18 21 23 23 23 23 24 23 23 23 22 22 21 20 20 20 19 19 19 19 18 18 18 17 17 17 17 17 17 17 16 16 16 16 16 16 16 16 16 16 16 15 15
18 20 22 23 23 23 23 23 23 22 22 21 21 20 20 20 19 19 18 18 18 17 17 17 17 17 17 17 17 17 16 16 16 15 15 15 16 16 16 16 16 15 15
16 18 20 21 22 22 22 21 21 21 20 20 20 20 19 19 19 18 18 18 17 17 17 17 17 17 17 16 16 16 16 16 15 15 15 15 15 15 16 16 16 16 16
16 17 18 19 20 20 20 20 20 19 19 19 19 19 19 19 18 18 18 18 17 17 17 17 17 17 16 16 16 16 16 15 15 15 15 15 15 15 15 16 16 16 16
15 16 16 17 17 18 18 19 19 18 18 18 18 18 18 18 18 18 17 17 17 17 17 17 16 16 16 16 16 16 15 15 15 15 15 15 15 15 15 15 15 15 16
14 15 15 16 16 16 17 17 17 17 17 17 18 18 18 18 18 17 17 17 17 17 16 16 16 16 16 16 15 15 15 15 15 15 15 15 15 15 15 15 15 15 15
14 14 15 15 16 16 16 16 16 17 17 17 18 18 18 18 18 17 17 17 17 16 16 16 16 16 16 15 15 15 15 15 15 14 14 14 14 14 14 14 14 15 15
14 14 14 14 15 15 15 15 16 16 16 17 17 18 18 18 17 17 17 17 16 16 16 16 16 16 15 15 15 15 15 14 14 14 14 14 14 14 14 14 14 14 14
13 14 14 14 14 14 15 15 16 16 16 17 17 18 18 18 17 17 17 16 16 16 16 16 16 15 15 15 15 15 14 14 14 14 14 14 14 14 14 14 14 14 14
13 14 14 14 15 15 15 15 16 16 17 17 17 18 17 17 17 17 17 16 16 16 16 16 15 15 15 15 15 15 14 14 14 14 13 13 13 13 13 14 14 14 14
13 14 14 14 15 15 16 16 17 17 17 17 17 17 17 17 17 17 17 16 16 16 16 15 15 15 15 15 15 15 14 14 14 13 13 13 13 13 13 13 13 13 13
13 13 14 14 15 16 16 16 17 17 17 17 17 17 17 17 17 17 17 16 16 16 16 15 15 15 15 15 15 14 14 14 14 13 13 13 13 13 13 13 13 13 13
12 12 13 14 15 15 16 17 17 17 17 17 17 17 17 17 17 17 17 17 16 16 16 16 15 15 15 15 15 14 14 14 14 14 13 13 13 13 13 13 13 13 13
12 12 13 14 14 15 15 16 16 16 16 16 16 16 16 16 16 16 16 16 16 16 16 16 15 15 15 15 15 14 14 14 14 14 14 13 13 13 13 13 13 13 12
12 12 13 13 13 14 14 15 15 15 15 15 15 15 15 15 15 16 16 16 16 16 16 15 15 15 15 15 14 14 14 14 14 14 14 14 14 14 13 13 13 13 13
13 13 13 13 13 13 13 13 14 14 14 14 14 14 14 15 15 15 15 15 15 15 15 15 15 15 14 14 14 14 14 14 14 14 14 14 14 14 14 14 13 13 13
13 13 13 13 13 13 13 13 13 13 13 13 13 13 13 13 14 14 14 14 14 14 14 14 14 14 14 14 14 14 14 14 14 14 14 14 14 14 14 14 14 14 13
14 13 13 13 13 13 13 13 12 12 12 12 12 12 12 12 12 12 12 12 12 12 12 13 13 13 13 13 14 14 14 14 14 14 14 14 14 14 14 14 14 14 13
14 14 14 13 13 13 13 13 12 12 12 12 12 11 11 11 11 11 12 11 11 12 12 12 12 12 13 13 13 13 13 13 13 13 13 13 14 14 14 14 14 14 13
14 14 14 14 14 13 13 13 13 12 12 12 12 11 11 11 11 11 11 11 11 11 11 12 12 12 12 12 13 13 13 13 13 13 13 13 13 13 13 13 13 13 13
15 14 14 14 14 14 14 13 13 12 12 12 11 11 11 11 11 11 11 11 11 11 11 11 11 11 11 12 12 12 12 12 13 13 13 13 13 13 13 13 13 13 13
15 15 15 15 14 14 14 13 13 12 12 12 11 11 11 11 11 11 11 11 11 11 11 11 11 11 11 11 11 11 12 12 12 12 12 12 12 12 12 12 12 12 12
15 15 15 15 15 14 14 14 13 13 12 12 11 11 11 11 11 11 11 11 10 10 11 11 11 11 11 11 11 11 11 11 11 11 11 11 12 12 12 12 11 11 11
15 15 15 15 15 15 15 14 14 13 12 12 12 11 11 11 11 11 10 10 10 10 10 10 10 10 10 10 10 11 11 11 11 11 11 11 11 11 11 11 11 11 11
Wind_Speed
11 10 12 14 15 14 15 14 14 12 11 8 7 6 6 5 5 5 8 10 10 11 9 6 5 5 5 5 5 4 4 3 3 4 3 2 2 1 2 1 0 1 1
12 10 10 13 17 18 17 16 15 14 13 10 7 4 3 3 3 3 4 8 9 9 9 7 6 6 5 6 6 5 4 3 4 4 3 1 2 2 2 2 3 3 2
15 14 11 12 14 17 16 13 13 12 10 8 6 4 3 2 2 4 4 5 7 8 7 7 6 7 7 7 8 8 7 5 3 2 4 4 5 3 2 3 3 3 3
16 13 9 8 10 12 11 10 10 10 8 8 7 7 6 5 5 3 3 4 6 6 7 7 7 7 7 7 8 8 6 6 5 2 1 1 3 3 2 2 2 4 5
16 13 8 3 3 6 8 9 10 10 9 7 6 5 4 3 2 2 3 3 4 5 6 6 6 7 7 8 8 8 8 6 6 5 3 2 0 1 3 2 3 2 4
16 14 11 8 8 8 10 12 12 9 8 6 4 5 5 4 3 2 2 2 2 2 4 4 5 6 6 7 7 8 9 8 7 7 6 5 4 4 3 3 3 4 3
13 12 12 10 10 11 10 10 13 9 6 5 3 4 4 4 4 3 3 2 2 2 3 4 4 4 5 5 6 7 8 9 9 9 8 7 6 4 4 4 3 3 2
11 10 9 8 10 11 10 9 9 6 3 3 4 3 4 3 3 3 3 3 3 2 2 3 4 4 4 5 5 5 6 7 9 10 9 7 7 6 5 5 5 3 2
11 9 7 8 10 10 9 7 6 5 1 2 3 3 4 4 4 3 3 3 2 2 3 3 3 3 3 4 4 4 5 6 7 8 9 8 7 6 6 5 5 6 4
10 8 6 7 8 9 7 6 5 3 1 1 2 3 3 4 4 4 4 4 3 3 4 4 3 2 2 3 3 3 4 5 5 5 7 8 6 6 7 6 6 6 6
9 7 6 6 7 6 4 3 2 1 0 1 2 4 4 4 4 3 3 3 3 4 4 4 4 3 2 2 2 2 3 4 4 4 6 7 7 7 7 6 6 6 6
8 6 6 5 5 4 3 2 2 1 0 2 3 4 4 4 4 3 2 2 3 4 4 4 4 3 3 2 2 2 2 2 2 3 4 5 5 8 7 7 8 7 7
10 7 6 6 5 3 3 4 3 2 1 3 4 4 3 2 2 2 2 2 2 3 3 4 4 4 4 3 3 3 2 1 1 1 2 2 3 5 5 7 7 7 7
12 10 7 6 5 4 2 3 3 2 2 4 4 3 2 1 0 0 1 2 2 3 4 4 4 4 4 4 4 4 3 2 2 1 1 1 1 2 3 4 5 6 6
14 13 10 8 8 8 7 6 5 3 4 5 5 4 3 3 3 2 2 2 2 3 3 4 4 4 4 5 5 5 4 4 3 1 1 1 1 2 2 2 3 4 4
13 13 12 11 10 10 9 9 8 8 8 8 7 6 6 6 6 5 5 4 3 2 2 3 4 5 5 7 9 7 5 4 4 3 2 2 2 3 3 3 4 5 4
11 11 10 9 9 9 8 9 8 8 9 9 9 8 8 7 7 7 6 5 4 3 2 3 3 5 6 8 9 11 6 5 4 4 3 2 2 3 3 4 5 5 7
9 9 8 8 8 8 8 8 8 9 9 9 9 8 8 8 7 7 7 6 4 4 3 3 3 4 5 6 8 10 7 5 5 5 4 4 4 4 4 4 4 5 5
6 5 5 5 6 8 7 8 8 8 8 8 8 8 7 8 8 8 8 5 5 5 4 4 4 3 4 4 5 6 5 4 5 4 4 4 5 5 6 5 5 5 5
5 5 5 6 7 7 7 8 7 8 8 7 6 7 7 7 8 8 6 5 5 5 5 5 5 4 4 4 2 5 4 4 3 2 2 4 4 5 4 5 5 5 4
5 5 6 6 6 6 6 7 7 7 6 5 6 7 8 7 7 7 6 6 6 6 7 7 7 7 7 6 4 2 3 3 3 1 0 1 2 1 1 3 4 5 3
6 5 5 5 5 5 5 6 6 5 4 5 6 7 7 7 7 8 8 8 8 8 8 7 7 7 8 9 7 5 4 3 2 1 0 1 3 4 4 2 0 1 2
6 4 3 5 5 4 4 4 5 3 3 5 5 5 6 7 7 8 9 8 8 8 7 7 7 6 6 8 12 9 7 5 3 2 2 4 6 6 5 5 5 4 3
6 5 4 4 5 4 3 2 2 2 3 3 4 4 5 5 6 6 7 7 8 7 7 7 7 6 6 7 7 6 5 6 5 4 5 7 7 5 4 4 4 3 2
6 5 4 5 5 4 3 2 0 2 2 2 2 3 3 3 4 4 5 5 5 6 5 5 5 6 6 8 9 5 4 3 3 3 3 4 4 4 4 3 3 3 3
6 6 6 6 6 5 4 3 2 2 2 1 2 2 2 2 1 2 3 4 4 7 9 8 6 4 6 9 9 9 8 7 6 5 4 4 4 4 4 3 3 3 3
Wind_Direction
280 260 236 224 219 213 206 199 194 184 173 171 175 184 203 202 202 201 202 201 202 200 197 201 198 187 192 193 175 153 147 132 132 104 73 19 9 253 255 259 198 154 104
312 289 253 226 217 212 208 200 195 187 182 184 175 166 161 181 195 193 196 200 198 196 199 195 194 192 191 186 179 159 150 152 161 137 124 91 325 300 230 222 221 220 217
322 305 275 235 218 212 206 198 189 181 176 165 143 114 104 103 156 198 205 199 194 195 197 193 190 190 188 194 191 178 169 168 180 168 150 161 212 248 283 236 220 208 211
330 318 293 248 217 207 190 172 162 153 151 153 165 171 184 197 208 198 198 193 194 197 198 193 189 192 193 197 196 186 178 165 175 174 133 161 162 164 228 287 243 216 218
340 338 333 296 193 173 147 135 130 128 132 148 170 187 199 196 163 158 183 193 194 198 198 194 188 194 197 199 194 184 183 182 177 170 155 141 129 143 156 229 261 254 234
349 355 8 33 57 79 101 110 106 102 113 122 158 194 198 180 163 174 181 188 188 198 196 186 187 194 197 197 195 191 189 192 186 182 182 181 181 191 175 190 223 237 249
354 4 14 33 50 61 74 88 94 87 88 110 170 193 189 175 177 183 189 184 189 206 206 186 185 189 196 195 188 190 196 195 197 200 205 204 204 180 171 173 192 225 257
352 4 16 40 53 52 57 71 89 99 111 163 185 175 159 158 172 182 179 185 191 201 189 178 180 187 187 188 186 194 200 201 208 213 210 211 215 197 184 177 168 185 242
350 1 18 48 62 59 48 52 71 75 96 185 157 154 157 158 167 166 159 162 165 163 144 143 149 168 183 187 184 199 207 204 211 215 213 214 215 206 203 190 179 176 198
349 2 23 50 59 58 47 40 45 52 284 186 167 154 152 151 147 142 152 153 147 135 132 129 133 140 160 178 184 204 212 212 218 214 214 216 212 208 206 204 198 186 184
350 5 27 37 54 57 49 35 33 31 172 153 139 125 129 130 130 135 148 151 148 149 151 148 144 144 143 141 159 195 202 216 225 223 220 223 209 207 206 203 200 198 187
356 12 29 33 46 40 13 312 293 303 184 138 126 123 117 118 124 130 137 154 164 169 165 158 156 162 159 155 161 178 181 204 222 228 228 229 217 213 207 205 206 204 198
11 18 20 14 15 358 308 274 271 254 204 138 130 123 116 126 142 148 149 173 181 184 177 174 181 184 179 174 177 173 164 174 199 219 232 241 226 218 212 209 208 205 202
24 29 25 13 8 1 338 299 293 260 162 129 122 111 95 96 185 260 232 228 214 206 204 203 203 200 194 189 183 174 165 159 154 152 173 217 221 226 222 215 210 202 198
29 30 29 27 27 28 26 25 21 37 82 91 79 60 45 34 16 356 329 303 269 241 217 211 212 207 201 203 194 187 182 177 173 168 173 216 214 212 211 204 196 195 201
22 26 29 30 30 31 31 38 44 48 63 67 55 38 34 33 21 9 3 353 327 287 233 220 219 221 224 218 203 192 190 191 195 209 229 255 253 246 238 227 207 195 195
10 17 21 22 23 26 33 40 42 49 56 55 47 36 32 28 18 14 14 4 346 335 301 263 238 241 245 239 220 205 190 195 205 212 224 247 238 232 236 252 244 228 219
356 1 6 12 16 24 31 36 39 44 49 46 40 30 26 22 12 13 8 355 349 344 332 312 282 264 263 250 231 211 192 195 209 213 219 236 255 240 219 221 236 242 239
337 344 358 8 16 20 21 38 36 35 39 34 27 18 17 16 11 7 356 350 349 349 343 335 327 305 301 292 244 194 175 193 212 220 226 235 250 260 231 211 232 253 260
341 355 3 17 19 7 14 36 29 28 23 16 13 12 16 18 12 2 356 351 352 354 359 7 6 355 339 336 287 178 167 184 200 212 242 255 263 270 233 202 214 248 265
341 2 13 13 0 356 16 28 22 13 358 9 22 23 19 19 16 11 10 8 12 21 26 27 22 20 13 10 23 122 155 171 166 167 233 311 329 349 135 176 201 237 237
343 358 4 354 347 357 16 19 6 348 7 30 35 29 24 25 22 23 22 22 23 29 27 27 27 21 16 19 26 50 84 116 128 136 125 347 44 64 72 85 78 231 136
336 339 345 337 340 354 12 11 345 1 43 45 36 27 27 29 27 30 26 24 24 27 25 25 24 16 14 17 26 36 50 66 77 71 72 72 67 60 54 53 64 74 87
335 331 332 328 323 332 349 342 344 67 75 50 28 21 26 29 30 32 30 29 24 21 21 21 16 9 12 14 10 14 28 43 55 58 58 61 60 53 47 46 46 50 73
323 322 305 290 288 298 307 301 221 131 92 48 18 14 22 31 35 37 33 29 29 23 21 16 12 11 11 359 2 18 23 32 55 59 47 41 39 37 31 33 38 38 48
319 319 306 285 279 276 272 263 223 185 159 32 1 358 1 17 37 31 25 28 27 28 35 34 28 15 8 4 23 38 44 53 71 69 57 47 44 40 31 30 33 34 32
Height
1488 1488 1489 1491 1493 1496 1498 1501 1504 1506 1509 1511 1514 1517 1519 1521 1523 1525 1527 1528 1530 1531 1533 1534 1537 1539 1540 1542 1544 1545 1547 1549 1550 1552 1552 1553 1554 1554 1555 1555 1556 1556 1556
1481 1481 1481 1483 1485 1488 1491 1495 1498 1501 1505 1508 1511 1514 1517 1519 1522 1523 1525 1526 1527 1528 1530 1531 1533 1535 1536 1538 1540 1542 1544 1546 1548 1549 1551 1551 1553 1552 1553 1554 1554 1555 1555
1479 1475 1475 1476 1477 1480 1483 1487 1492 1496 1501 1505 1509 1512 1514 1516 1519 1520 1522 1523 1524 1525 1526 1527 1529 1530 1532 1534 1535 1537 1539 1541 1544 1546 1548 1549 1548 1550 1551 1551 1552 1553 1554
1475 1471 1469 1469 1470 1473 1476 1482 1487 1492 1497 1502 1506 1509 1511 1513 1515 1517 1519 1520 1521 1522 1523 1524 1525 1526 1528 1529 1531 1532 1534 1536 1539 1541 1543 1546 1547 1547 1548 1549 1550 1551 1552
1475 1469 1465 1464 1466 1469 1472 1477 1483 1488 1494 1499 1503 1506 1508 1510 1512 1513 1515 1516 1517 1518 1519 1520 1521 1522 1523 1524 1526 1527 1529 1531 1533 1535 1538 1540 1543 1544 1545 1546 1547 1548 1549
1476 1470 1466 1464 1464 1467 1470 1474 1480 1486 1491 1497 1502 1504 1506 1508 1509 1511 1512 1513 1514 1515 1516 1517 1518 1519 1519 1520 1521 1522 1524 1525 1528 1530 1532 1535 1537 1539 1541 1542 1544 1545 1546
1479 1474 1470 1467 1466 1468 1471 1474 1477 1485 1489 1495 1500 1503 1505 1507 1508 1509 1510 1511 1512 1513 1514 1515 1515 1516 1516 1517 1517 1518 1519 1521 1523 1525 1527 1529 1532 1534 1537 1539 1541 1542 1543
1481 1477 1474 1471 1470 1471 1473 1476 1480 1487 1491 1495 1500 1502 1504 1506 1508 1509 1509 1510 1510 1511 1511 1512 1512 1512 1513 1513 1514 1515 1516 1517 1518 1520 1522 1525 1526 1529 1531 1534 1537 1538 1540
1483 1479 1476 1474 1473 1474 1477 1479 1483 1488 1493 1497 1500 1502 1503 1505 1507 1508 1508 1509 1509 1509 1510 1510 1510 1510 1510 1510 1511 1511 1512 1513 1514 1516 1517 1519 1521 1524 1526 1529 1531 1534 1535
1484 1481 1479 1477 1476 1477 1479 1483 1486 1490 1495 1497 1500 1501 1503 1505 1506 1507 1508 1508 1508 1508 1508 1508 1508 1508 1508 1508 1508 1508 1509 1509 1510 1511 1512 1514 1516 1518 1520 1523 1525 1528 1530
1485 1482 1481 1480 1480 1481 1483 1486 1489 1493 1496 1498 1500 1502 1503 1504 1505 1506 1507 1507 1507 1507 1507 1507 1507 1507 1507 1506 1506 1506 1506 1506 1506 1507 1508 1509 1511 1512 1514 1516 1519 1522 1524
1486 1484 1483 1483 1484 1486 1488 1490 1491 1493 1495 1497 1499 1501 1502 1503 1504 1505 1505 1506 1506 1506 1506 1506 1506 1506 1506 1505 1505 1504 1504 1504 1503 1504 1504 1505 1506 1507 1509 1510 1513 1515 1517
1489 1487 1486 1486 1487 1489 1490 1491 1492 1493 1494 1496 1498 1500 1501 1501 1502 1503 1504 1505 1505 1505 1505 1505 1505 1505 1505 1505 1504 1504 1503 1502 1502 1502 1502 1502 1503 1503 1504 1506 1507 1509 1512
1493 1490 1490 1489 1489 1489 1489 1490 1490 1491 1492 1494 1496 1498 1499 1500 1500 1501 1502 1503 1503 1503 1504 1504 1504 1504 1504 1504 1503 1503 1502 1502 1501 1501 1500 1500 1501 1501 1502 1502 1504 1505 1507
1498 1495 1493 1492 1491 1490 1490 1489 1489 1490 1491 1493 1494 1496 1496 1497 1498 1499 1500 1500 1501 1501 1501 1502 1502 1502 1502 1503 1503 1502 1502 1501 1501 1501 1500 1500 1500 1500 1500 1501 1501 1502 1503
1504 1501 1498 1496 1494 1493 1492 1491 1491 1491 1492 1493 1493 1494 1495 1495 1496 1496 1497 1497 1498 1498 1499 1499 1499 1500 1500 1500 1501 1501 1501 1501 1501 1501 1500 1500 1500 1500 1500 1500 1501 1501 1502
1509 1507 1504 1502 1499 1497 1496 1494 1494 1494 1493 1493 1494 1494 1494 1494 1494 1494 1494 1494 1494 1494 1495 1495 1496 1496 1497 1497 1498 1498 1499 1499 1500 1500 1500 1500 1500 1500 1500 1500 1500 1501 1501
1515 1512 1510 1507 1505 1503 1501 1500 1498 1497 1496 1495 1494 1494 1493 1493 1492 1492 1491 1491 1490 1490 1490 1491 1492 1492 1493 1494 1494 1495 1496 1497 1498 1498 1499 1499 1500 1500 1500 1500 1500 1500 1501
1520 1518 1515 1513 1510 1508 1506 1504 1502 1501 1499 1497 1496 1495 1494 1493 1492 1491 1489 1488 1487 1487 1486 1487 1487 1488 1489 1490 1491 1492 1493 1494 1495 1496 1497 1498 1499 1499 1499 1499 1499 1499 1499
1523 1521 1519 1517 1514 1512 1510 1508 1506 1504 1502 1501 1499 1498 1496 1494 1493 1491 1489 1488 1486 1485 1485 1484 1485 1485 1486 1487 1487 1488 1490 1491 1492 1493 1495 1496 1497 1497 1497 1498 1498 1498 1498
1526 1524 1522 1520 1518 1515 1514 1512 1510 1508 1506 1505 1503 1501 1499 1497 1495 1493 1491 1489 1488 1486 1485 1484 1484 1484 1484 1484 1485 1486 1487 1488 1490 1491 1492 1493 1494 1495 1496 1496 1496 1496 1496
1528 1526 1525 1523 1521 1519 1517 1515 1513 1511 1509 1508 1506 1504 1502 1500 1498 1496 1494 1492 1490 1488 1487 1485 1484 1484 1483 1483 1484 1484 1485 1486 1488 1489 1490 1491 1492 1493 1494 1494 1494 1494 1494
1529 1528 1527 1526 1524 1522 1520 1518 1516 1514 1513 1511 1509 1507 1505 1503 1501 1499 1497 1495 1493 1491 1489 1487 1486 1485 1485 1484 1484 1484 1485 1485 1486 1487 1488 1490 1491 1491 1492 1492 1492 1492 1492
1530 1529 1528 1527 1526 1525 1523 1521 1519 1517 1515 1514 1512 1510 1508 1506 1504 1502 1500 1497 1495 1493 1492 1490 1489 1488 1487 1486 1486 1485 1485 1486 1486 1487 1488 1489 1489 1490 1490 1491 1491 1491 1491
1530 1529 1529 1528 1527 1526 1524 1523 1521 1519 1517 1516 1514 1512 1510 1508 1506 1504 1502 1500 1498 1496 1494 1493 1491 1490 1489 1488 1488 1487 1487 1487 1487 1487 1487 1488 1488 1489 1489 1490 1490 1490 1490
1530 1529 1528 1528 1527 1526 1525 1524 1522 1520 1519 1517 1515 1513 1511 1509 1508 1506 1504 1502 1500 1498 1496 1495 1494 1493 1492 1491 1490 1489 1489 1488 1488 1488 1488 1488 1488 1489 1489 1489 1489 1489 1490